S-NET D (43186 NORAD) Tracking and Keplerian Element Data

This shows tracking and keplerian element data for the satellite.

Feedback or suggestion? Click here.




ElementValue
Catalog43186
NameS-NET D
Epoch Orbit8891
Epoch Day261.82129054
Epoch Year2019
RAAN168.9033
Inclination97.7016
Eccentricity0.001241
Argument of Perigee61.7896
Mean Anonmoly298.4577
Mean Motion14.96674897
Decay Rate5.49E-06
L11 43186U 18014G 19261.82129054 .00000549 00000-0 53136-4 0 9996
L22 43186 97.7016 168.9033 0012410 61.7896 298.4577 14.96674897 88918

Live tracking and technical data element details for S-NET D (NORAD 43186). S-NET D can be tracked NOW for your location showing map with azimuth and elevation plus other details from your city location.

Track the satellite on the map from your city or location and see movement details for azimuth, elevation, latitude, longitude, range, height, and movement on the map or in text.







IsCatalogInMostPopularTable: catalog: 43186, numindb: 325
Update: records affected: 1



GetName: 43186 S-NET D

Hit Count: updated at: Thu, 19 Sep 2019 16:36:23 GMT